Date String (YYYY-MM-DD hh:mm:ss) UTC,Instrument flags,absolute air pressure of the measurement (hPa),sample flow rate (lpm),inlet stack bypass flow (lpm),air temperature of the measurement (°C),ambient temperature measured by the external sensor (°C),aerosol sample conditioner tube jacket temperature (°C),OPC LED temperature (°C),internal box temperature (°C),relative humidity of the measurement (%),span deviation,mass concentration of particles derived from Lorenz-Mie calculation of OPC scattering (μg/m³),mass concentration of particles derived from Lorenz-Mie calculation of OPC scattering (μg/m³),mass concentration of particles derived from Lorenz-Mie calculation of OPC scattering (μg/m³)
DateTimeUTC,F1_M11,P_M11,Q1_M11,Q2_M11,T1_M11,T2_M11,T3_M11,T4_M11,T5_M11,U1_M11,ZSPAN_M11,X2_M11,X0_M11,X1_M11
2023-06-16 16:00:00,SystemResetWarning,0833.7,5.00,000.00,030.4,025.5,000.0,038.9,031.6,28.7,0000.0,0002.46,0004.02,0002.09
2023-06-16 16:01:00,SystemResetWarning,0833.8,5.01,000.00,030.3,025.8,000.0,038.9,031.4,28.7,0000.0,0002.40,0004.09,0002.07
2023-06-16 16:02:00,SystemResetWarning,0833.8,4.99,000.00,030.2,026.3,000.0,038.9,031.4,28.9,0000.0,0002.42,0004.16,0002.06
2023-06-16 16:03:00,SystemResetWarning,0833.7,4.99,000.00,030.2,026.7,000.0,038.9,031.5,28.5,0000.0,0002.45,0004.27,0002.07
2023-06-16 16:04:00,SystemResetWarning,0833.8,4.99,000.00,030.2,027.0,000.0,038.8,031.5,28.3,0000.0,0002.47,0004.32,0002.07
2023-06-16 16:05:00,SystemResetWarning,0833.7,5.00,000.00,030.2,027.3,000.0,038.8,031.5,28.5,0000.0,0002.47,0004.33,0002.06
2023-06-16 16:06:00,SystemResetWarning,0833.8,5.01,000.00,030.2,027.6,000.0,038.8,031.5,28.9,0000.0,0002.45,0004.38,0002.06
2023-06-16 16:07:00,SystemResetWarning,0833.7,5.00,000.00,030.2,027.8,000.0,038.8,031.5,28.8,0000.0,0002.42,0004.34,0002.04
2023-06-16 16:08:00,SystemResetWarning,0833.8,4.99,000.00,030.2,028.0,000.0,038.8,031.6,28.4,0000.0,0002.40,0004.33,0002.03
2023-06-16 16:09:00,SystemResetWarning,0833.8,5.00,000.00,030.2,028.1,000.0,038.8,031.6,28.5,0000.0,0002.40,0004.39,0002.02
2023-06-16 16:10:00,SystemResetWarning,0833.7,5.01,000.00,030.2,028.2,000.0,038.8,031.6,29.3,0000.0,0002.37,0004.60,0002.00
2023-06-16 16:11:00,SystemResetWarning,0833.7,5.01,000.00,030.2,028.3,000.0,038.8,031.6,29.9,0000.0,0002.37,0004.49,0001.99
2023-06-16 16:12:00,SystemResetWarning,0833.7,4.99,000.00,030.2,028.4,000.0,038.8,031.7,29.5,0000.0,0002.36,0004.38,0001.98
2023-06-16 16:13:00,SystemResetWarning,0833.7,4.99,000.00,030.2,028.5,000.0,038.8,031.7,29.1,0000.0,0002.35,0004.33,0001.98
2023-06-16 16:14:00,SystemResetWarning,0833.7,5.01,000.00,030.2,028.6,000.0,038.8,031.7,28.7,0000.0,0002.31,0004.28,0001.99
2023-06-16 16:15:00,SystemResetWarning,0833.8,5.01,000.00,030.2,028.6,000.0,038.8,031.8,28.9,0000.0,0002.30,0004.32,0002.00
2023-06-16 16:16:00,SystemResetWarning,0833.7,4.99,000.00,030.3,028.6,000.0,038.8,031.8,29.1,0000.0,0002.28,0004.29,0002.01
2023-06-16 16:17:00,SystemResetWarning,0833.8,5.00,000.00,030.3,028.7,000.0,038.8,031.8,28.9,0000.0,0002.29,0004.19,0002.03
2023-06-16 16:18:00,SystemResetWarning,0833.8,4.99,000.00,030.3,028.7,000.0,038.8,031.8,28.5,0000.0,0002.34,0004.27,0002.05
2023-06-16 16:19:00,SystemResetWarning,0833.8,5.00,000.00,030.3,028.8,000.0,038.8,031.8,29.0,0000.0,0002.36,0004.35,0002.07
2023-06-16 16:20:00,SystemResetWarning,0833.8,5.00,000.00,030.3,028.8,000.0,038.8,031.9,29.7,0000.0,0002.39,0004.49,0002.09
2023-06-16 16:21:00,SystemResetWarning,0833.8,5.01,000.00,030.4,028.8,000.0,038.9,031.9,29.0,0000.0,0002.41,0004.19,0002.13
2023-06-16 16:22:00,SystemResetWarning,0833.8,5.00,000.00,030.4,028.9,000.0,038.9,031.9,29.0,0000.0,0002.44,0003.53,0002.18
2023-06-16 16:23:00,SystemResetWarning,0833.8,5.00,000.00,030.4,028.9,000.0,038.9,031.9,29.5,0000.0,0002.50,0003.51,0002.22
2023-06-16 16:24:00,SystemResetWarning,0833.8,5.01,000.00,030.4,028.9,000.0,038.9,031.9,29.4,0000.0,0002.51,0003.54,0002.23
2023-06-16 16:25:00,SystemResetWarning,0833.8,4.99,000.00,030.4,028.9,000.0,038.9,031.9,28.7,0000.0,0002.55,0003.58,0002.25
2023-06-16 16:26:00,SystemResetWarning,0833.8,4.99,000.00,030.4,028.9,000.0,038.9,032.0,28.8,0000.0,0002.60,0003.73,0002.26
2023-06-16 16:27:00,SystemResetWarning,0833.8,4.99,000.00,030.4,029.0,000.0,039.0,032.0,29.5,0000.0,0002.61,0003.73,0002.28
2023-06-16 16:28:00,SystemResetWarning,0833.8,4.99,000.00,030.5,028.6,000.0,039.0,032.0,29.2,0000.0,0002.62,0003.70,0002.30
2023-06-16 16:29:00,SystemResetWarning,0833.7,5.00,000.00,030.5,026.6,000.0,038.9,031.9,28.4,0000.0,0002.64,0003.70,0002.33
2023-06-16 16:30:00,SystemResetWarning,0833.8,5.00,000.00,030.4,025.6,000.0,038.8,031.7,28.3,0000.0,0002.68,0003.67,0002.37
2023-06-16 16:31:00,SystemResetWarning,0833.7,5.01,000.00,030.3,025.7,000.0,038.8,031.5,28.4,0000.0,0002.75,0003.67,0002.42
2023-06-16 16:32:00,SystemResetWarning,0833.7,5.01,000.00,030.2,026.0,000.0,038.8,031.3,28.9,0000.0,0002.78,0003.75,0002.45
2023-06-16 16:33:00,SystemResetWarning,0833.7,5.00,000.00,030.2,026.4,000.0,038.8,031.4,28.7,0000.0,0002.82,0003.84,0002.47
2023-06-16 16:34:00,SystemResetWarning,0833.7,5.00,000.00,030.1,026.8,000.0,038.8,031.5,28.9,0000.0,0002.85,0003.88,0002.50
2023-06-16 16:35:00,SystemResetWarning,0833.7,4.99,000.00,030.1,027.2,000.0,038.8,031.5,29.6,0000.0,0002.91,0003.99,0002.54
2023-06-16 16:36:00,SystemResetWarning,0833.6,5.00,000.00,030.1,027.5,000.0,038.8,031.5,29.5,0000.0,0002.94,0004.11,0002.57
2023-06-16 16:37:00,SystemResetWarning,0833.7,5.00,000.00,030.1,027.7,000.0,038.8,031.5,29.4,0000.0,0002.91,0003.87,0002.59
2023-06-16 16:38:00,SystemResetWarning,0833.7,5.00,000.00,030.1,027.9,000.0,038.7,031.6,30.2,0000.0,0002.91,0003.84,0002.60
2023-06-16 16:39:00,SystemResetWarning,0833.7,5.00,000.00,030.1,028.1,000.0,038.7,031.6,30.2,0000.0,0002.95,0003.96,0002.62
2023-06-16 16:40:00,SystemResetWarning,0833.7,5.00,000.00,030.1,028.2,000.0,038.7,031.6,30.3,0000.0,0002.96,0003.94,0002.64
2023-06-16 16:41:00,SystemResetWarning,0833.7,4.99,000.00,030.2,028.3,000.0,038.7,031.7,31.0,0000.0,0002.96,0003.95,0002.65
2023-06-16 16:42:00,SystemResetWarning,0833.7,5.00,000.00,030.2,028.4,000.0,038.7,031.7,30.0,0000.0,0002.99,0004.01,0002.68
2023-06-16 16:43:00,SystemResetWarning,0833.7,5.00,000.00,030.2,028.5,000.0,038.7,031.7,29.6,0000.0,0003.05,0004.15,0002.73
2023-06-16 16:44:00,SystemResetWarning,0833.7,5.00,000.00,030.2,028.6,000.0,038.7,031.7,29.7,0000.0,0003.12,0004.30,0002.79
2023-06-16 16:45:00,SystemResetWarning,0833.7,5.00,000.00,030.2,028.6,000.0,038.8,031.8,29.9,0000.0,0003.17,0004.51,0002.83
2023-06-16 16:46:00,SystemResetWarning,0833.7,5.00,000.00,030.2,028.7,000.0,038.8,031.8,29.9,0000.0,0003.20,0004.57,0002.88
2023-06-16 16:47:00,SystemResetWarning,0833.7,5.00,000.00,030.3,028.7,000.0,038.8,031.8,30.1,0000.0,0003.20,0004.44,0002.92
2023-06-16 16:48:00,SystemResetWarning,0833.7,5.00,000.00,030.3,028.8,000.0,038.8,031.8,30.2,0000.0,0003.25,0004.51,0002.98
2023-06-16 16:49:00,SystemResetWarning,0833.7,4.99,000.00,030.3,028.8,000.0,038.8,031.8,30.2,0000.0,0003.28,0004.58,0003.04
2023-06-16 16:50:00,SystemResetWarning,0833.7,5.00,000.00,030.3,028.9,000.0,038.8,031.9,29.7,0000.0,0003.32,0004.61,0003.11
2023-06-16 16:51:00,SystemResetWarning,0833.6,5.00,000.00,030.4,028.9,000.0,038.9,031.9,29.3,0000.0,0003.35,0004.67,0003.14
2023-06-16 16:52:00,SystemResetWarning,0833.7,5.00,000.00,030.4,028.9,000.0,038.9,031.9,29.4,0000.0,0003.39,0004.77,0003.18
2023-06-16 16:53:00,SystemResetWarning,0833.6,5.00,000.00,030.4,028.7,000.0,038.9,032.0,29.2,0000.0,0003.41,0004.75,0003.20
2023-06-16 16:54:00,SystemResetWarning,0833.7,5.00,000.00,030.4,026.7,000.0,038.8,031.9,28.9,0000.0,0003.42,0004.69,0003.22
2023-06-16 16:55:00,SystemResetWarning,0833.7,5.00,000.00,030.4,025.5,000.0,038.7,031.8,28.9,0000.0,0003.44,0004.74,0003.25
2023-06-16 16:56:00,SystemResetWarning,0833.7,5.01,000.00,030.3,025.6,000.0,038.7,031.5,29.3,0000.0,0003.44,0004.56,0003.28
2023-06-16 16:57:00,SystemResetWarning,0833.6,5.01,000.00,030.2,025.9,000.0,038.7,031.3,29.7,0000.0,0003.47,0004.58,0003.32
2023-06-16 16:58:00,SystemResetWarning,0833.6,5.00,000.00,030.1,026.4,000.0,038.7,031.4,30.0,0000.0,0003.53,0005.41,0003.36
2023-06-16 16:59:00,SystemResetWarning,0833.7,5.00,000.00,030.1,026.8,000.0,038.7,031.4,29.8,0000.0,0003.61,0005.84,0003.42
